Dean International
Flight School

Career Spotlight

Mika

Mika

Congratulations to Mika from Khazakstan. She recently sent us this photo of her flying an Airbus airliner.

More...
Mika's Success Story
close

Congratulations to Mika from Khazakstan. She recently sent us this photo of her flying an Airbus airliner.

Mario

Mario

My dreams could not have been realized if I wouldn't have been part of the Dean International family.

More...
Mario's Success Story
close

"My dreams could not have been realized if I wouldn't have been part of the Dean International family. Thank you Robert, thanks to all my co-workers, and thanks to all of my students!"

Fernando

Fernando

I am now working as a First Officer at TACA and am enjoying every moment of it.

More...
Fernando's Success Story
close

"Will never forget my time of flight training at Dean International. I am now working as a First Officer at TACA and am enjoying every moment of it."

Alvaro

Alvaro

Because of the flight time I was able to built while instructing, I got the experience needed to apply to an airline in Colombia.

More...
Alvaro's Success Story
close

Dean alumnus Alvaro Londoño currently flies with Tampa Cargo. He says of his experience at Dean: "I want to take this opportunity to thank you for giving me the chance to build my experience and expand my knowledge in Dean International. Because of the flight time I was able to built flight instructing, I got the experience needed to apply to an airline in Colombia."

Ralph

Ralph

Every Aruban student of Dean International has made it into Tiara Air Aruba, that is very nice.

More...
Ralph's Success Story
close

"Next to me is my Co-Pilot, Elison. This picture was taken on our first flight together, which was almost exactly 5 years after I finished at Dean International. [...] Every Aruban student of Dean International has made it into Tiara Air Aruba. [...] The future looks bright here in Aruba."

Rohaan

Rohaan

The [..] staff will all work diligently to help you finish your certificates as safely and efficiently as possible.

More...
Rohaan's Success Story
close

After receiving very hard times from other flight schools [...], I came to Dean International where Robert Dean personally sat down with me and gave me a financial and chronological look into how much remained to finish my private pilot certificate. Through his hard efforts as an instructor and mentor, I was able to finish my private pilot certificate within one week.

Welcome to Dean International

In over two decades, Dean International has educated over 7,000 pilots from all over the world, including over 1,000 students from India alone. By offering a great training experience, a friendly service staff, an ample variety of aircraft, and by improving constantly, we have become one of the largest, most prestigious FAA 141-approved flight schools in North America. Located in Miami, Florida, USA, our flight school offers an ideal location for year-round, "learn to fly" weather, flight training. Dean International is not only well-equipped to provide services to professional trainees but also caters to General Aviation renters. Visit or contact our headquarters at Kendall-Tamiami Executive Airport located in Miami, FL today to learn more about us, or simply read more about our programs if you are an international student interested in joining our school.

Local Airport Information
TAF FOR KTMB (Issued: Sat, November 1st 2014 6:39 AM UTC)
TAF KTMB 010536Z 0106/0206 32008KT P6SM SKC
      FM011400 31015G22KT P6SM SKC
      FM020000 32010KT P6SM SKC
     
METAR FOR KTMB (Issued: Sat, November 1st 2014 7:53 AM UTC):
KTMB 010753Z 32006KT 10SM CLR 17/13 A2993 RMK AO2 SLP133 T01720128

This weather information is provided by the National Weather Service.
It is automatically refreshed every three minutes.
TAF FOR KHST (Issued: Sat, November 1st 2014 12:12 AM UTC)
TAF KHST 0100/0206 28010KT 9999 FEW020 QNH2980INS
      BECMG 0114/0115 30010G15KT 9999 SCT050 QNH2995INS
      TEMPO 0116/0120 28015G30KT 510003
      BECMG 0200/0201 31012KT 9999 FEW040 QNH3001INS TX25/0119Z TN17/0111Z
     
METAR FOR KHST (Issued: Sat, November 1st 2014 7:58 AM UTC):
KHST 010758Z AUTO 30007KT 10SM CLR 17/13 A2993 RMK AO2 SLP138 T01700126

This weather information is provided by the National Weather Service.
It is automatically refreshed every three minutes.
TAF FOR KOPF (Issued: Sat, November 1st 2014 6:39 AM UTC)
TAF KOPF 010536Z 0106/0206 30009KT P6SM SKC
      FM011400 30015G22KT P6SM SKC
      FM020000 31011KT P6SM SKC
     
METAR FOR KOPF (Issued: Sat, November 1st 2014 7:53 AM UTC):
KOPF 010753Z AUTO 32010KT 10SM CLR 18/12 A2992 RMK AO2 SLP131 T01780117 $

This weather information is provided by the National Weather Service.
It is automatically refreshed every three minutes.
TAF FOR KMIA (Issued: Sat, November 1st 2014 6:42 AM UTC)
TAF KMIA 010536Z 0106/0206 32008KT P6SM SKC
      FM011400 30012G20KT P6SM SKC
      FM020000 30008KT P6SM SKC
     
METAR FOR KMIA (Issued: Sat, November 1st 2014 7:53 AM UTC):
KMIA 010753Z 31007KT 10SM CLR 18/12 A2992 RMK AO2 SLP131 T01830117

This weather information is provided by the National Weather Service.
It is automatically refreshed every three minutes.
Design by Ariel Llizo
© Dean International Inc. 2012